Location: Ciserano
(45.5833°N, 9.6000°E)
Time: 07:24:16
(UTC+00:00)

Cosmos 1295 Rocket - Pass Details

Date: 17 April 2021
Orbit: 944 x 993 km, 82.9° (Epoch: 13 May)

Event Time Altitude Azimuth Distance (km) Brightness Sun altitude
Rises 02:19:02 0° 332° (NNW) 3,673 7.7 -21.2°
Reaches altitude 10° 02:23:44 10° 300° (WNW) 2,731 6.7 -20.5°
Enters shadow 02:25:00 11° 288° (WNW) 2,654 6.5 -20.4°
